| time (UTC) | temp F | wind direction | speed MPH | gust MPH | rain 1hr in | rain 24hr in | rain mn in | humidity % | barometer mb |
| 20260509152033 | 76 | 137 | 3.0 | 8.0 | 0.02 | 0.02 | 0.02 | 93 | 1012.6 |
| 20260509151553 | 75 | 166 | 3.0 | 8.0 | 0.02 | 0.02 | 0.02 | 94 | 1012.5 |
| 20260509151032 | 75 | 148 | 3.0 | 8.0 | 0.02 | 0.02 | 0.02 | 95 | 1012.5 |
| 20260509150538 | 75 | 143 | 4.0 | 8.0 | 0.01 | 0.01 | 0.01 | 94 | 1012.4 |
| 20260509150050 | 74 | 106 | 4.0 | 7.0 | 0.00 | 0.00 | 0.00 | 94 | 1012.4 |
| 20260509145534 | 74 | 130 | 3.0 | 7.0 | 0.00 | 0.00 | 0.00 | 93 | 1012.4 |
| 20260509145035 | 74 | 133 | 3.0 | 7.0 | 0.00 | 0.00 | 0.00 | 94 | 1012.6 |
| 20260509144548 | 74 | 92 | 2.0 | 4.0 | 0.00 | 0.00 | 0.00 | 94 | 1012.5 |
| 20260509144034 | 74 | 0 | 0.0 | 4.0 | 0.00 | 0.00 | 0.00 | 94 | 1012.6 |
| 20260509143535 | 74 | 47 | 2.0 | 4.0 | 0.00 | 0.00 | 0.00 | 94 | 1012.6 |
| 20260509143056 | 74 | 82 | 1.0 | 3.0 | 0.00 | 0.00 | 0.00 | 94 | 1012.5 |
| 20260509142533 | 74 | 85 | 2.0 | 4.0 | 0.00 | 0.00 | 0.00 | 94 | 1012.3 |
| 20260509142036 | 74 | 90 | 1.0 | 4.0 | 0.00 | 0.00 | 0.00 | 94 | 1012.4 |
| 20260509141548 | 74 | 70 | 1.0 | 4.0 | 0.00 | 0.00 | 0.00 | 94 | 1012.2 |
| 20260509141034 | 74 | 153 | 1.0 | 4.0 | 0.00 | 0.00 | 0.00 | 94 | 1012.2 |
| 20260509140533 | 74 | 203 | 0.0 | 4.0 | 0.00 | 0.00 | 0.00 | 94 | 1012.0 |
| 20260509140057 | 74 | 54 | 2.0 | 4.0 | 0.00 | 0.00 | 0.00 | 94 | 1011.9 |
| 20260509135535 | 74 | 31 | 2.0 | 4.0 | 0.00 | 0.00 | 0.00 | 94 | 1011.8 |
| 20260509135036 | 74 | 2 | 0.0 | 3.0 | 0.00 | 0.00 | 0.00 | 94 | 1011.7 |
| 20260509134544 | 73 | 71 | 0.0 | 3.0 | 0.00 | 0.00 | 0.00 | 94 | 1011.6 |
| 20260509134035 | 74 | 345 | 0.0 | 8.0 | 0.00 | 0.00 | 0.00 | 94 | 1011.6 |
| 20260509133535 | 74 | 51 | 2.0 | 8.0 | 0.00 | 0.00 | 0.00 | 94 | 1011.6 |
| 20260509133049 | 73 | 40 | 3.0 | 7.0 | 0.00 | 0.00 | 0.00 | 94 | 1011.6 |
| 20260509132534 | 73 | 51 | 2.0 | 7.0 | 0.00 | 0.00 | 0.00 | 94 | 1011.5 |
| 20260509132033 | 73 | 76 | 3.0 | 7.0 | 0.00 | 0.00 | 0.00 | 95 | 1011.4 |
| 20260509131552 | 73 | 97 | 2.0 | 5.0 | 0.00 | 0.00 | 0.00 | 95 | 1011.7 |
| 20260509131033 | 73 | 88 | 1.0 | 6.0 | 0.00 | 0.00 | 0.00 | 95 | 1012.0 |
| 20260509130534 | 73 | 126 | 2.0 | 7.0 | 0.00 | 0.00 | 0.00 | 94 | 1011.9 |
| 20260509130047 | 73 | 160 | 3.0 | 7.0 | 0.00 | 0.00 | 0.00 | 94 | 1011.8 |
| 20260509125533 | 73 | 143 | 4.0 | 7.0 | 0.00 | 0.00 | 0.00 | 94 | 1011.7 |
| 20260509125033 | 73 | 51 | 4.0 | 7.0 | 0.00 | 0.00 | 0.00 | 94 | 1011.9 |
| 20260509124551 | 73 | 70 | 2.0 | 8.0 | 0.00 | 0.00 | 0.00 | 94 | 1011.9 |
| 20260509124033 | 72 | 93 | 3.0 | 8.0 | 0.00 | 0.00 | 0.00 | 94 | 1011.8 |
| 20260509123533 | 72 | 97 | 3.0 | 8.0 | 0.00 | 0.00 | 0.00 | 94 | 1012.0 |
| 20260509123114 | 72 | 68 | 5.0 | 11.0 | 0.00 | 0.00 | 0.00 | 94 | 1012.2 |
| 20260509122534 | 72 | 64 | 4.0 | 11.0 | 0.00 | 0.00 | 0.00 | 94 | 1012.2 |
| 20260509122033 | 72 | 70 | 5.0 | 11.0 | 0.00 | 0.00 | 0.00 | 94 | 1012.1 |
| 20260509121545 | 72 | 55 | 4.0 | 8.0 | 0.00 | 0.00 | 0.00 | 94 | 1012.1 |
| 20260509121033 | 72 | 42 | 3.0 | 8.0 | 0.00 | 0.00 | 0.00 | 94 | 1012.0 |
| 20260509120534 | 72 | 48 | 4.0 | 8.0 | 0.00 | 0.00 | 0.00 | 94 | 1011.7 |
| 20260509120049 | 72 | 51 | 4.0 | 8.0 | 0.00 | 0.00 | 0.00 | 94 | 1011.5 |
| 20260509115535 | 72 | 49 | 3.0 | 7.0 | 0.00 | 0.00 | 0.00 | 94 | 1011.3 |
| 20260509115033 | 72 | 45 | 3.0 | 5.0 | 0.00 | 0.00 | 0.00 | 94 | 1011.3 |
| 20260509114553 | 72 | 34 | 2.0 | 5.0 | 0.00 | 0.00 | 0.00 | 94 | 1011.0 |
| 20260509114034 | 72 | 65 | 2.0 | 4.0 | 0.00 | 0.00 | 0.00 | 94 | 1011.1 |
| 20260509113537 | 72 | 76 | 1.0 | 6.0 | 0.00 | 0.00 | 0.00 | 94 | 1010.9 |
| 20260509113047 | 72 | 70 | 1.0 | 6.0 | 0.00 | 0.00 | 0.00 | 94 | 1011.0 |
| 20260509112533 | 72 | 86 | 2.0 | 6.0 | 0.00 | 0.00 | 0.00 | 94 | 1011.0 |
| 20260509112033 | 72 | 84 | 2.0 | 6.0 | 0.00 | 0.00 | 0.00 | 94 | 1011.1 |
| 20260509111546 | 72 | 95 | 3.0 | 6.0 | 0.00 | 0.00 | 0.00 | 94 | 1011.0 |
| 20260509111034 | 72 | 64 | 2.0 | 5.0 | 0.00 | 0.00 | 0.00 | 94 | 1011.0 |
| 20260509110533 | 72 | 61 | 2.0 | 8.0 | 0.00 | 0.00 | 0.00 | 94 | 1010.9 |
| 20260509110044 | 72 | 60 | 2.0 | 9.0 | 0.00 | 0.00 | 0.00 | 94 | 1010.8 |
| 20260509105534 | 72 | 49 | 3.0 | 9.0 | 0.00 | 0.00 | 0.00 | 94 | 1010.8 |
| 20260509105033 | 72 | 49 | 4.0 | 8.0 | 0.00 | 0.00 | 0.00 | 94 | 1010.9 |
| 20260509104546 | 72 | 67 | 3.0 | 7.0 | 0.00 | 0.00 | 0.00 | 94 | 1010.8 |
| 20260509104035 | 72 | 26 | 2.0 | 5.0 | 0.00 | 0.00 | 0.00 | 94 | 1011.0 |
| 20260509103534 | 72 | 72 | 3.0 | 5.0 | 0.00 | 0.00 | 0.00 | 94 | 1010.8 |
| 20260509103057 | 72 | 53 | 2.0 | 6.0 | 0.00 | 0.00 | 0.00 | 94 | 1010.7 |
| 20260509102534 | 72 | 0 | 1.0 | 6.0 | 0.00 | 0.00 | 0.00 | 94 | 1010.8 |
| 20260509102034 | 72 | 85 | 2.0 | 4.0 | 0.00 | 0.00 | 0.00 | 94 | 1010.7 |
| 20260509101548 | 72 | 101 | 1.0 | 4.0 | 0.00 | 0.00 | 0.00 | 94 | 1010.8 |
| 20260509101035 | 72 | 101 | 1.0 | 3.0 | 0.00 | 0.00 | 0.00 | 94 | 1010.8 |
| 20260509100533 | 72 | 144 | 0.0 | 5.0 | 0.00 | 0.00 | 0.00 | 93 | 1010.7 |
| 20260509100051 | 72 | 144 | 1.0 | 5.0 | 0.00 | 0.00 | 0.00 | 93 | 1010.7 |
| 20260509095533 | 72 | 118 | 2.0 | 6.0 | 0.00 | 0.00 | 0.00 | 93 | 1010.4 |
| 20260509095032 | 72 | 100 | 1.0 | 6.0 | 0.00 | 0.00 | 0.00 | 93 | 1010.3 |
| 20260509094548 | 72 | 65 | 2.0 | 7.0 | 0.00 | 0.00 | 0.00 | 93 | 1010.2 |
| 20260509094032 | 72 | 43 | 2.0 | 8.0 | 0.00 | 0.00 | 0.00 | 93 | 1010.0 |
| 20260509093533 | 72 | 52 | 4.0 | 8.0 | 0.00 | 0.00 | 0.00 | 93 | 1010.0 |
| 20260509093044 | 72 | 26 | 2.0 | 5.0 | 0.00 | 0.00 | 0.00 | 93 | 1010.0 |
| 20260509092532 | 72 | 63 | 3.0 | 5.0 | 0.00 | 0.00 | 0.00 | 93 | 1009.9 |
| 20260509092033 | 72 | 60 | 3.0 | 5.0 | 0.00 | 0.00 | 0.00 | 93 | 1010.0 |
| 20260509091548 | 72 | 12 | 1.0 | 7.0 | 0.00 | 0.00 | 0.00 | 93 | 1009.9 |
| 20260509091032 | 72 | 62 | 2.0 | 7.0 | 0.00 | 0.00 | 0.00 | 93 | 1009.6 |
| 20260509090532 | 72 | 72 | 3.0 | 6.0 | 0.00 | 0.00 | 0.00 | 93 | 1009.5 |
| 20260509090054 | 72 | 36 | 4.0 | 9.0 | 0.00 | 0.00 | 0.00 | 93 | 1009.6 |
| 20260509085531 | 72 | 51 | 2.0 | 9.0 | 0.00 | 0.00 | 0.00 | 93 | 1009.8 |
| 20260509085032 | 72 | 13 | 4.0 | 9.0 | 0.00 | 0.00 | 0.00 | 93 | 1009.8 |
| 20260509084548 | 72 | 26 | 2.0 | 5.0 | 0.00 | 0.00 | 0.00 | 93 | 1009.7 |
| 20260509084033 | 72 | 10 | 3.0 | 5.0 | 0.00 | 0.00 | 0.00 | 93 | 1009.7 |
| 20260509083532 | 72 | 10 | 1.0 | 4.0 | 0.00 | 0.00 | 0.00 | 93 | 1009.9 |
| 20260509083052 | 72 | 52 | 2.0 | 4.0 | 0.00 | 0.00 | 0.00 | 93 | 1009.9 |
| 20260509082532 | 72 | 37 | 2.0 | 4.0 | 0.00 | 0.00 | 0.00 | 93 | 1009.8 |
| 20260509082033 | 72 | 71 | 3.0 | 4.0 | 0.00 | 0.00 | 0.00 | 93 | 1009.9 |
| 20260509081546 | 72 | 80 | 2.0 | 7.0 | 0.00 | 0.00 | 0.00 | 93 | 1010.0 |
| 20260509081034 | 72 | 102 | 3.0 | 7.0 | 0.00 | 0.00 | 0.00 | 93 | 1010.0 |
| 20260509080532 | 72 | 107 | 2.0 | 8.0 | 0.00 | 0.00 | 0.00 | 93 | 1010.1 |
| 20260509080048 | 72 | 123 | 3.0 | 9.0 | 0.00 | 0.00 | 0.00 | 93 | 1010.4 |
| 20260509075531 | 72 | 141 | 4.0 | 9.0 | 0.00 | 0.00 | 0.00 | 93 | 1010.5 |
| 20260509075031 | 72 | 133 | 2.0 | 9.0 | 0.00 | 0.00 | 0.00 | 93 | 1010.4 |
| 20260509074603 | 72 | 144 | 4.0 | 10.0 | 0.00 | 0.00 | 0.00 | 93 | 1010.4 |
| 20260509074036 | 72 | 131 | 3.0 | 12.0 | 0.00 | 0.00 | 0.00 | 93 | 1010.5 |
| 20260509073534 | 72 | 144 | 5.0 | 12.0 | 0.00 | 0.00 | 0.00 | 93 | 1010.3 |
| 20260509073047 | 72 | 126 | 6.0 | 10.0 | 0.00 | 0.00 | 0.00 | 93 | 1010.2 |
| 20260509072534 | 72 | 117 | 4.0 | 11.0 | 0.00 | 0.00 | 0.00 | 93 | 1010.1 |
| 20260509072035 | 72 | 93 | 6.0 | 11.0 | 0.00 | 0.00 | 0.00 | 92 | 1010.1 |
| 20260509071554 | 72 | 124 | 3.0 | 10.0 | 0.00 | 0.00 | 0.00 | 93 | 1010.1 |
| 20260509071030 | 72 | 114 | 4.0 | 11.0 | 0.00 | 0.00 | 0.00 | 93 | 1010.2 |
| 20260509070534 | 72 | 136 | 6.0 | 11.0 | 0.00 | 0.00 | 0.00 | 92 | 1010.3 |
| 20260509070054 | 71 | 129 | 4.0 | 9.0 | 0.00 | 0.00 | 0.00 | 92 | 1010.4 |
| 20260509065537 | 71 | 114 | 4.0 | 10.0 | 0.00 | 0.00 | 0.00 | 92 | 1010.2 |
| 20260509065034 | 71 | 114 | 5.0 | 10.0 | 0.00 | 0.00 | 0.00 | 92 | 1010.1 |
| 20260509064548 | 71 | 118 | 5.0 | 9.0 | 0.00 | 0.00 | 0.00 | 92 | 1010.2 |
| 20260509064037 | 71 | 108 | 4.0 | 8.0 | 0.00 | 0.00 | 0.00 | 92 | 1010.4 |
| 20260509063535 | 71 | 93 | 2.0 | 5.0 | 0.00 | 0.00 | 0.00 | 92 | 1010.6 |
| 20260509063048 | 71 | 117 | 2.0 | 5.0 | 0.00 | 0.00 | 0.00 | 92 | 1010.7 |
| 20260509062534 | 71 | 128 | 3.0 | 5.0 | 0.00 | 0.00 | 0.00 | 92 | 1010.7 |
| 20260509062030 | 71 | 115 | 1.0 | 6.0 | 0.00 | 0.00 | 0.00 | 92 | 1010.8 |
| 20260509061554 | 71 | 80 | 2.0 | 6.0 | 0.00 | 0.00 | 0.00 | 91 | 1010.7 |
| 20260509061033 | 70 | 115 | 3.0 | 6.0 | 0.00 | 0.00 | 0.00 | 91 | 1010.7 |
| 20260509060531 | 70 | 95 | 2.0 | 4.0 | 0.00 | 0.00 | 0.00 | 91 | 1010.9 |
| 20260509060049 | 70 | 81 | 1.0 | 3.0 | 0.00 | 0.00 | 0.00 | 91 | 1011.0 |
| 20260509055534 | 70 | 110 | 1.0 | 4.0 | 0.00 | 0.00 | 0.00 | 91 | 1010.9 |
| 20260509055035 | 70 | 80 | 2.0 | 4.0 | 0.00 | 0.00 | 0.00 | 91 | 1011.0 |
| 20260509054605 | 70 | 66 | 2.0 | 4.0 | 0.00 | 0.00 | 0.00 | 91 | 1011.0 |
| 20260509054033 | 70 | 95 | 2.0 | 4.0 | 0.00 | 0.00 | 0.00 | 91 | 1010.8 |
| 20260509053533 | 70 | 124 | 2.0 | 4.0 | 0.00 | 0.00 | 0.00 | 91 | 1011.0 |
| 20260509053049 | 70 | 117 | 1.0 | 4.0 | 0.00 | 0.00 | 0.00 | 91 | 1011.1 |
| 20260509052531 | 70 | 0 | 0.0 | 4.0 | 0.00 | 0.00 | 0.00 | 90 | 1011.1 |
| 20260509052034 | 70 | 112 | 2.0 | 4.0 | 0.00 | 0.00 | 0.00 | 90 | 1011.2 |
| 20260509051548 | 70 | 135 | 1.0 | 4.0 | 0.00 | 0.00 | 0.00 | 90 | 1011.3 |
| 20260509051036 | 70 | 145 | 1.0 | 4.0 | 0.00 | 0.00 | 0.00 | 90 | 1011.4 |
| 20260509050536 | 70 | 222 | 0.0 | 1.0 | 0.00 | 0.00 | 0.00 | 90 | 1011.5 |
| 20260509050054 | 70 | 0 | 0.0 | 2.0 | 0.00 | 0.00 | 0.00 | 90 | 1011.4 |
| 20260509045533 | 70 | 222 | 0.0 | 2.0 | 0.00 | 0.00 | 0.00 | 90 | 1011.4 |
| 20260509045035 | 70 | 0 | 0.0 | 1.0 | 0.00 | 0.00 | 0.00 | 89 | 1011.4 |
| 20260509044547 | 70 | 222 | 0.0 | 1.0 | 0.00 | 0.00 | 0.00 | 89 | 1011.3 |
| 20260509044034 | 70 | 0 | 0.0 | 1.0 | 0.00 | 0.00 | 0.00 | 89 | 1011.5 |
| 20260509043533 | 70 | 0 | 0.0 | 1.0 | 0.00 | 0.00 | 0.00 | 89 | 1011.6 |
| 20260509043052 | 70 | 0 | 0.0 | 1.0 | 0.00 | 0.00 | 0.00 | 89 | 1011.5 |
| 20260509042534 | 70 | 0 | 0.0 | 1.0 | 0.00 | 0.00 | 0.00 | 89 | 1011.5 |
| 20260509042034 | 70 | 0 | 0.0 | 1.0 | 0.00 | 0.00 | 0.00 | 88 | 1011.3 |
| 20260509041556 | 70 | 0 | 0.0 | 2.0 | 0.00 | 0.00 | 0.00 | 88 | 1011.3 |
| 20260509041034 | 70 | 0 | 0.0 | 3.0 | 0.00 | 0.00 | 0.00 | 88 | 1011.3 |
| 20260509040533 | 70 | 99 | 1.0 | 3.0 | 0.00 | 0.00 | 0.00 | 87 | 1011.1 |
| 20260509040049 | 70 | 104 | 1.0 | 3.0 | 0.00 | 0.00 | 0.00 | 87 | 1011.0 |
| 20260509035534 | 70 | 0 | 1.0 | 3.0 | 0.00 | 0.00 | 0.00 | 87 | 1011.0 |
| 20260509035036 | 70 | 97 | 0.0 | 3.0 | 0.00 | 0.00 | 0.00 | 87 | 1010.8 |
| 20260509034553 | 70 | 97 | 1.0 | 3.0 | 0.00 | 0.00 | 0.00 | 86 | 1010.7 |
| 20260509034033 | 70 | 97 | 1.0 | 2.0 | 0.00 | 0.00 | 0.00 | 86 | 1010.5 |
| 20260509033535 | 70 | 0 | 0.0 | 4.0 | 0.00 | 0.00 | 0.00 | 86 | 1010.4 |
| 20260509033056 | 70 | 97 | 1.0 | 6.0 | 0.00 | 0.00 | 0.00 | 86 | 1010.2 |
| 20260509032534 | 70 | 74 | 1.0 | 8.0 | 0.00 | 0.00 | 0.00 | 86 | 1010.3 |
| 20260509032033 | 71 | 75 | 3.0 | 8.0 | 0.00 | 0.00 | 0.00 | 86 | 1010.2 |
| 20260509031617 | 71 | 64 | 4.0 | 9.0 | 0.00 | 0.00 | 0.00 | 86 | 1010.0 |
| 20260509031033 | 71 | 70 | 5.0 | 9.0 | 0.00 | 0.00 | 0.00 | 85 | 1010.0 |
| 20260509030533 | 70 | 56 | 4.0 | 7.0 | 0.00 | 0.00 | 0.00 | 83 | 1009.9 |
| 20260509030047 | 71 | 71 | 3.0 | 7.0 | 0.00 | 0.00 | 0.00 | 83 | 1009.8 |
| 20260509025534 | 71 | 37 | 3.0 | 7.0 | 0.00 | 0.00 | 0.00 | 83 | 1009.8 |
| 20260509025035 | 71 | 74 | 2.0 | 4.0 | 0.00 | 0.00 | 0.00 | 82 | 1009.7 |
| 20260509024548 | 72 | 79 | 2.0 | 3.0 | 0.00 | 0.00 | 0.00 | 82 | 1009.9 |
| 20260509024034 | 72 | 83 | 1.0 | 4.0 | 0.00 | 0.00 | 0.00 | 82 | 1009.9 |
| 20260509023535 | 72 | 83 | 1.0 | 4.0 | 0.00 | 0.00 | 0.00 | 82 | 1009.9 |
| 20260509023057 | 72 | 68 | 2.0 | 4.0 | 0.00 | 0.00 | 0.00 | 82 | 1009.8 |
| 20260509022535 | 73 | 60 | 2.0 | 4.0 | 0.00 | 0.00 | 0.00 | 82 | 1009.9 |
| 20260509022036 | 73 | 52 | 2.0 | 4.0 | 0.00 | 0.00 | 0.00 | 82 | 1009.8 |
| 20260509021547 | 73 | 55 | 1.0 | 6.0 | 0.00 | 0.00 | 0.00 | 81 | 1009.8 |
| 20260509021033 | 73 | 60 | 2.0 | 6.0 | 0.00 | 0.00 | 0.00 | 81 | 1009.7 |
| 20260509020533 | 73 | 78 | 2.0 | 7.0 | 0.00 | 0.00 | 0.00 | 81 | 1009.6 |
| 20260509020049 | 74 | 80 | 3.0 | 7.0 | 0.00 | 0.00 | 0.00 | 81 | 1009.5 |
| 20260509015533 | 74 | 70 | 3.0 | 7.0 | 0.00 | 0.00 | 0.00 | 80 | 1009.5 |
| 20260509015036 | 74 | 42 | 2.0 | 5.0 | 0.00 | 0.00 | 0.00 | 80 | 1009.4 |
| 20260509014544 | 74 | 43 | 3.0 | 5.0 | 0.00 | 0.00 | 0.00 | 80 | 1009.3 |
| 20260509014034 | 74 | 54 | 2.0 | 4.0 | 0.00 | 0.00 | 0.00 | 79 | 1009.1 |
| 20260509013534 | 75 | 57 | 2.0 | 6.0 | 0.00 | 0.00 | 0.00 | 79 | 1009.0 |
| 20260509013102 | 75 | 81 | 2.0 | 6.0 | 0.00 | 0.00 | 0.00 | 79 | 1009.0 |
| 20260509012534 | 75 | 66 | 2.0 | 7.0 | 0.00 | 0.00 | 0.00 | 79 | 1009.0 |
| 20260509012031 | 75 | 83 | 3.0 | 7.0 | 0.00 | 0.00 | 0.00 | 79 | 1008.9 |
| 20260509011603 | 76 | 82 | 4.0 | 7.0 | 0.00 | 0.00 | 0.00 | 79 | 1009.0 |
| 20260509011033 | 76 | 62 | 2.0 | 6.0 | 0.00 | 0.00 | 0.00 | 79 | 1009.0 |
| 20260509010536 | 76 | 74 | 2.0 | 6.0 | 0.00 | 0.00 | 0.00 | 79 | 1009.0 |
| 20260509010047 | 76 | 87 | 3.0 | 6.0 | 0.00 | 0.00 | 0.00 | 79 | 1009.0 |
| 20260509005532 | 76 | 76 | 3.0 | 6.0 | 0.00 | 0.00 | 0.00 | 79 | 1009.1 |
| 20260509005031 | 76 | 85 | 3.0 | 7.0 | 0.00 | 0.00 | 0.00 | 79 | 1009.0 |
| 20260509004552 | 76 | 62 | 2.0 | 8.0 | 0.00 | 0.00 | 0.00 | 79 | 1008.8 |
| 20260509004034 | 76 | 76 | 3.0 | 8.0 | 0.00 | 0.00 | 0.00 | 79 | 1008.9 |
| 20260509003531 | 76 | 56 | 3.0 | 7.0 | 0.00 | 0.00 | 0.00 | 79 | 1008.9 |
| 20260509003053 | 76 | 62 | 3.0 | 7.0 | 0.00 | 0.00 | 0.00 | 79 | 1009.0 |
| 20260509002530 | 76 | 193 | 4.0 | 7.0 | 0.00 | 0.00 | 0.00 | 79 | 1008.9 |
| 20260509002030 | 76 | 34 | 2.0 | 8.0 | 0.00 | 0.00 | 0.00 | 79 | 1008.9 |
| 20260509001545 | 76 | 66 | 2.0 | 8.0 | 0.00 | 0.00 | 0.00 | 78 | 1008.8 |
| 20260509001033 | 76 | 100 | 4.0 | 8.0 | 0.00 | 0.00 | 0.00 | 78 | 1008.8 |
| 20260509000534 | 77 | 51 | 4.0 | 8.0 | 0.00 | 0.00 | 0.00 | 77 | 1008.8 |
| 20260508235531 | 77 | 60 | 3.0 | 9.0 | 0.00 | 0.00 | 0.00 | 78 | 1008.9 |
| 20260508235034 | 77 | 52 | 3.0 | 9.0 | 0.00 | 0.00 | 0.00 | 78 | 1009.0 |
| 20260508234547 | 77 | 91 | 4.0 | 8.0 | 0.00 | 0.00 | 0.00 | 78 | 1009.0 |
| 20260508234035 | 77 | 66 | 4.0 | 7.0 | 0.00 | 0.00 | 0.00 | 77 | 1009.0 |
| 20260508233534 | 77 | 118 | 3.0 | 7.0 | 0.00 | 0.00 | 0.00 | 78 | 1009.0 |
| 20260508233050 | 77 | 87 | 3.0 | 7.0 | 0.00 | 0.00 | 0.00 | 78 | 1009.0 |
| 20260508232530 | 77 | 45 | 3.0 | 9.0 | 0.00 | 0.00 | 0.00 | 77 | 1008.9 |
| 20260508232033 | 77 | 41 | 4.0 | 9.0 | 0.00 | 0.00 | 0.00 | 79 | 1009.0 |
| 20260508231550 | 76 | 80 | 4.0 | 9.0 | 0.00 | 0.00 | 0.00 | 79 | 1009.0 |
| 20260508231032 | 76 | 93 | 3.0 | 9.0 | 0.00 | 0.00 | 0.00 | 78 | 1009.0 |
| 20260508230531 | 77 | 79 | 5.0 | 9.0 | 0.00 | 0.00 | 0.00 | 77 | 1009.1 |
| 20260508230046 | 78 | 76 | 4.0 | 9.0 | 0.00 | 0.00 | 0.00 | 76 | 1009.0 |
| 20260508225534 | 78 | 75 | 4.0 | 7.0 | 0.00 | 0.00 | 0.00 | 78 | 1009.0 |
| 20260508225033 | 77 | 0 | 3.0 | 8.0 | 0.00 | 0.00 | 0.00 | 77 | 1009.1 |
| 20260508224545 | 77 | 101 | 3.0 | 11.0 | 0.00 | 0.00 | 0.00 | 77 | 1009.1 |
| 20260508224033 | 77 | 86 | 4.0 | 11.0 | 0.00 | 0.00 | 0.00 | 78 | 1009.2 |
| 20260508223531 | 77 | 130 | 4.0 | 9.0 | 0.00 | 0.00 | 0.00 | 78 | 1009.1 |
| 20260508223048 | 77 | 111 | 5.0 | 11.0 | 0.00 | 0.00 | 0.00 | 78 | 1009.2 |
| 20260508222532 | 77 | 138 | 4.0 | 11.0 | 0.00 | 0.00 | 0.00 | 79 | 1009.3 |
| 20260508222031 | 77 | 86 | 6.0 | 11.0 | 0.00 | 0.00 | 0.00 | 76 | 1009.3 |
| 20260508221545 | 78 | 77 | 3.0 | 8.0 | 0.00 | 0.00 | 0.00 | 78 | 1009.4 |
| 20260508221034 | 77 | 89 | 3.0 | 8.0 | 0.00 | 0.00 | 0.00 | 79 | 1009.4 |
| 20260508220534 | 77 | 162 | 3.0 | 7.0 | 0.00 | 0.00 | 0.00 | 78 | 1009.5 |
| 20260508220048 | 76 | 124 | 3.0 | 8.0 | 0.00 | 0.00 | 0.00 | 79 | 1009.5 |
| 20260508215532 | 76 | 132 | 4.0 | 8.0 | 0.00 | 0.00 | 0.00 | 77 | 1009.5 |
| 20260508215033 | 76 | 116 | 3.0 | 8.0 | 0.00 | 0.00 | 0.00 | 77 | 1009.5 |
| 20260508214556 | 76 | 113 | 5.0 | 9.0 | 0.00 | 0.00 | 0.00 | 79 | 1009.6 |
| 20260508214033 | 76 | 126 | 3.0 | 12.0 | 0.00 | 0.00 | 0.00 | 77 | 1009.7 |
| 20260508213535 | 77 | 141 | 4.0 | 12.0 | 0.00 | 0.00 | 0.00 | 76 | 1009.6 |
| 20260508213057 | 78 | 175 | 6.0 | 12.0 | 0.00 | 0.00 | 0.00 | 75 | 1009.6 |
| 20260508212534 | 78 | 171 | 7.0 | 12.0 | 0.00 | 0.00 | 0.00 | 75 | 1009.7 |
| 20260508212037 | 78 | 180 | 6.0 | 12.0 | 0.00 | 0.00 | 0.00 | 76 | 1009.8 |
| 20260508211543 | 77 | 146 | 5.0 | 13.0 | 0.00 | 0.00 | 0.00 | 76 | 1009.8 |
| 20260508211034 | 77 | 133 | 6.0 | 13.0 | 0.00 | 0.00 | 0.00 | 77 | 1009.9 |
| 20260508210534 | 77 | 118 | 5.0 | 10.0 | 0.00 | 0.00 | 0.00 | 78 | 1009.9 |
| 20260508210048 | 76 | 168 | 6.0 | 11.0 | 0.00 | 0.00 | 0.00 | 78 | 1010.1 |
| 20260508205533 | 75 | 153 | 5.0 | 11.0 | 0.00 | 0.00 | 0.00 | 79 | 1010.1 |
| 20260508205034 | 75 | 164 | 6.0 | 12.0 | 0.00 | 0.00 | 0.00 | 80 | 1010.2 |
| 20260508204551 | 75 | 141 | 7.0 | 12.0 | 0.00 | 0.00 | 0.00 | 79 | 1010.4 |
| 20260508204033 | 75 | 149 | 6.0 | 12.0 | 0.00 | 0.00 | 0.00 | 79 | 1010.4 |
| 20260508203533 | 76 | 191 | 5.0 | 12.0 | 0.00 | 0.00 | 0.00 | 80 | 1010.4 |
| 20260508203054 | 76 | 168 | 6.0 | 12.0 | 0.00 | 0.00 | 0.00 | 79 | 1010.5 |
| 20260508202535 | 76 | 110 | 4.0 | 10.0 | 0.00 | 0.00 | 0.00 | 79 | 1010.4 |
| 20260508202033 | 76 | 161 | 6.0 | 10.0 | 0.00 | 0.00 | 0.00 | 78 | 1010.5 |
| 20260508201556 | 76 | 133 | 6.0 | 10.0 | 0.00 | 0.00 | 0.00 | 80 | 1010.6 |
| 20260508201034 | 76 | 154 | 5.0 | 12.0 | 0.00 | 0.00 | 0.00 | 79 | 1010.4 |
| 20260508200533 | 76 | 185 | 5.0 | 12.0 | 0.00 | 0.00 | 0.00 | 76 | 1010.4 |
| 20260508200100 | 78 | 140 | 6.0 | 12.0 | 0.00 | 0.00 | 0.00 | 75 | 1010.4 |
| 20260508195534 | 78 | 132 | 2.0 | 9.0 | 0.00 | 0.00 | 0.00 | 77 | 1010.5 |
| 20260508195034 | 77 | 131 | 4.0 | 8.0 | 0.00 | 0.00 | 0.00 | 77 | 1010.5 |
| 20260508194545 | 77 | 131 | 3.0 | 8.0 | 0.00 | 0.00 | 0.00 | 78 | 1010.4 |
| 20260508194035 | 76 | 157 | 3.0 | 9.0 | 0.00 | 0.00 | 0.00 | 78 | 1010.5 |
| 20260508193535 | 76 | 113 | 3.0 | 9.0 | 0.00 | 0.00 | 0.00 | 79 | 1010.5 |
| 20260508193054 | 76 | 140 | 4.0 | 11.0 | 0.00 | 0.00 | 0.00 | 79 | 1010.6 |
| 20260508192534 | 75 | 133 | 5.0 | 11.0 | 0.00 | 0.00 | 0.00 | 78 | 1010.7 |
| 20260508192034 | 75 | 154 | 6.0 | 11.0 | 0.00 | 0.00 | 0.00 | 80 | 1010.7 |
| 20260508191552 | 75 | 87 | 3.0 | 10.0 | 0.00 | 0.00 | 0.00 | 77 | 1010.7 |
| 20260508191038 | 76 | 102 | 3.0 | 11.0 | 0.00 | 0.00 | 0.00 | 77 | 1010.8 |
| 20260508190535 | 77 | 131 | 7.0 | 11.0 | 0.00 | 0.00 | 0.00 | 77 | 1010.8 |
| 20260508190052 | 76 | 127 | 4.0 | 9.0 | 0.00 | 0.00 | 0.00 | 78 | 1010.8 |
| 20260508185531 | 75 | 148 | 5.0 | 9.0 | 0.00 | 0.00 | 0.00 | 79 | 1010.9 |
| 20260508185030 | 75 | 119 | 3.0 | 11.0 | 0.00 | 0.00 | 0.00 | 81 | 1011.0 |
| 20260508184548 | 74 | 114 | 2.0 | 11.0 | 0.00 | 0.00 | 0.00 | 80 | 1011.2 |
| 20260508184038 | 75 | 113 | 4.0 | 11.0 | 0.00 | 0.00 | 0.00 | 78 | 1011.3 |
| 20260508183537 | 76 | 140 | 4.0 | 10.0 | 0.00 | 0.00 | 0.00 | 78 | 1011.2 |
| 20260508183049 | 75 | 133 | 3.0 | 10.0 | 0.00 | 0.00 | 0.00 | 82 | 1011.3 |
| 20260508182535 | 74 | 89 | 4.0 | 10.0 | 0.00 | 0.00 | 0.00 | 82 | 1011.3 |
| 20260508182034 | 74 | 149 | 3.0 | 11.0 | 0.00 | 0.00 | 0.00 | 80 | 1011.4 |
| 20260508181607 | 73 | 124 | 3.0 | 11.0 | 0.00 | 0.00 | 0.00 | 80 | 1011.5 |
| 20260508181036 | 73 | 119 | 2.0 | 8.0 | 0.00 | 0.00 | 0.00 | 81 | 1011.5 |
| 20260508180534 | 73 | 135 | 2.0 | 8.0 | 0.00 | 0.00 | 0.00 | 80 | 1011.6 |
| 20260508180104 | 74 | 82 | 4.0 | 10.0 | 0.00 | 0.00 | 0.00 | 79 | 1011.6 |
| 20260508175534 | 74 | 113 | 2.0 | 10.0 | 0.00 | 0.00 | 0.00 | 81 | 1011.7 |
| 20260508175035 | 73 | 72 | 4.0 | 10.0 | 0.00 | 0.00 | 0.00 | 82 | 1011.7 |
| 20260508174546 | 73 | 58 | 4.0 | 10.0 | 0.00 | 0.00 | 0.00 | 81 | 1011.8 |
| 20260508174036 | 72 | 142 | 3.0 | 8.0 | 0.00 | 0.00 | 0.00 | 83 | 1011.9 |
| 20260508173533 | 71 | 143 | 4.0 | 8.0 | 0.00 | 0.00 | 0.00 | 84 | 1012.0 |
| 20260508173050 | 71 | 135 | 3.0 | 6.0 | 0.00 | 0.00 | 0.00 | 84 | 1012.2 |
| 20260508172534 | 70 | 116 | 3.0 | 7.0 | 0.00 | 0.00 | 0.00 | 86 | 1012.4 |
| 20260508172035 | 70 | 0 | 1.0 | 7.0 | 0.00 | 0.00 | 0.00 | 84 | 1012.4 |
| 20260508171544 | 70 | 163 | 2.0 | 7.0 | 0.00 | 0.00 | 0.00 | 84 | 1012.5 |
| 20260508171034 | 70 | 0 | 2.0 | 7.0 | 0.00 | 0.00 | 0.00 | 83 | 1012.5 |
| 20260508170534 | 70 | 97 | 4.0 | 7.0 | 0.00 | 0.00 | 0.00 | 85 | 1012.5 |
| 20260508170046 | 69 | 40 | 2.0 | 7.0 | 0.00 | 0.00 | 0.00 | 85 | 1012.6 |
| 20260508165535 | 68 | 76 | 2.0 | 7.0 | 0.00 | 0.00 | 0.00 | 86 | 1012.8 |
| 20260508165035 | 68 | 78 | 1.0 | 7.0 | 0.00 | 0.00 | 0.00 | 86 | 1013.0 |
| 20260508164554 | 68 | 52 | 0.0 | 6.0 | 0.00 | 0.00 | 0.00 | 86 | 1013.1 |
| 20260508164034 | 68 | 0 | 2.0 | 7.0 | 0.00 | 0.00 | 0.00 | 86 | 1013.0 |
| 20260508163533 | 68 | 57 | 2.0 | 7.0 | 0.00 | 0.00 | 0.00 | 87 | 1013.0 |
| 20260508163048 | 68 | 29 | 3.0 | 5.0 | 0.00 | 0.00 | 0.00 | 87 | 1013.0 |
| 20260508162534 | 67 | 26 | 0.0 | 4.0 | 0.00 | 0.00 | 0.00 | 86 | 1013.1 |
| 20260508162034 | 67 | 352 | 0.0 | 5.0 | 0.00 | 0.00 | 0.00 | 87 | 1013.2 |
| 20260508161547 | 67 | 70 | 2.0 | 7.0 | 0.00 | 0.00 | 0.00 | 87 | 1013.2 |
| 20260508161031 | 67 | 43 | 1.0 | 7.0 | 0.00 | 0.00 | 0.00 | 88 | 1013.1 |
| 20260508160533 | 67 | 53 | 4.0 | 7.0 | 0.00 | 0.00 | 0.00 | 88 | 1013.1 |
| 20260508160047 | 67 | 340 | 2.0 | 4.0 | 0.00 | 0.00 | 0.00 | 86 | 1013.2 |
| 20260508155534 | 66 | 58 | 2.0 | 5.0 | 0.00 | 0.00 | 0.00 | 87 | 1013.2 |
| 20260508155030 | 66 | 29 | 1.0 | 5.0 | 0.00 | 0.00 | 0.00 | 88 | 1013.2 |
| 20260508154553 | 66 | 119 | 3.0 | 5.0 | 0.00 | 0.00 | 0.00 | 88 | 1013.3 |
| 20260508154033 | 65 | 340 | 2.0 | 6.0 | 0.00 | 0.00 | 0.00 | 88 | 1013.4 |
| 20260508153534 | 65 | 23 | 3.0 | 8.0 | 0.00 | 0.00 | 0.00 | 88 | 1013.5 |
| 20260508153051 | 66 | 353 | 4.0 | 8.0 | 0.00 | 0.00 | 0.00 | 89 | 1013.5 |
| 20260508152535 | 65 | 345 | 3.0 | 5.0 | 0.00 | 0.00 | 0.00 | 89 | 1013.6 |